Flag for Ukraine Weather past 2 weeks in Odesa, Ukraine

Now
82 °F

Sunny.


Feels Like: 82 °F
Forecast: 71 / 82 °F
Wind: 6 mph from South

Location: Odesa Airport

Current Time: Jul 22, 2014 at 7:26:07 PM

Latest Report: Jul 22, 2014 at 7:00 PM


Visibility: 10 mi

Pressure: 29.83 "Hg

Humidity: 45%

Dew point: 59 °F

Location of OdesaLocation

Historic Weather in Odesa — Graph

°F

Odesa temperature yesterday

Maximum temperature yesterday: 86 °F (at 1:00 PM)
Minimum temperature yesterday: 64 °F (at 5:00 AM)
Average temperature yesterday: 77 °F

Past Weeks' High & Low Weather Summary

 TemperatureHumidityPressure
High91 °F (Jul 14, 3:00 PM)100% (Jul 10, 2:00 AM)30.04 "Hg (Jul 10, 2:00 AM)
Low63 °F (Jul 13, 5:00 AM)25% (Jul 15, 5:30 PM)29.62 "Hg (Jul 11, 5:30 PM)
Average76 °F63%29.82 "Hg
* Reported Jul 7 6:00 PM — Jul 22 6:30 PM, Odesa, Weather by CustomWeather, © 2014

Note: Actual official high and low records may vary slightly from our data, if they occured in-between our weather recording intervals... More about our weather records

Advertising

Odesa weather history for previous 24 hours

 ConditionsComfort  
Time TempWeatherWind HumidityBarometerVisibility
6:30 PM
Jul 22
84 °FPassing clouds.6 mph43%29.83 "HgN/A
6:00 PM82 °FSunny.8 mph45%29.80 "Hg10 mi
5:30 PM82 °FSunny.8 mph45%29.83 "Hg10 mi
5:00 PM84 °FPassing clouds.8 mph37%29.83 "HgN/A
4:30 PM86 °FPassing clouds.8 mph33%29.83 "HgN/A
4:00 PM86 °FPassing clouds.8 mph35%29.83 "HgN/A
3:30 PM86 °FSunny.10 mph40%29.83 "Hg10 mi
3:00 PM86 °FSunny.10 mph40%29.83 "Hg10 mi
2:30 PM86 °FSunny.10 mph40%29.83 "Hg10 mi
2:00 PM84 °FPassing clouds.10 mph45%29.83 "HgN/A
1:30 PM84 °FPassing clouds.10 mph43%29.83 "HgN/A
1:00 PM84 °FPassing clouds.8 mph40%29.83 "HgN/A
12:30 PM84 °FPassing clouds.8 mph43%29.83 "HgN/A
12:00 PM84 °FPassing clouds.8 mph45%29.83 "HgN/A
11:30 AM84 °FPassing clouds.8 mph48%29.83 "HgN/A
11:00 AM82 °FPassing clouds.8 mph51%29.83 "HgN/A
10:30 AM82 °FPassing clouds.8 mph51%29.83 "HgN/A
10:00 AM81 °FPassing clouds.10 mph54%29.83 "HgN/A
9:30 AM81 °FSunny.10 mph58%29.83 "Hg10 mi
9:00 AM79 °FPassing clouds.8 mph61%29.83 "HgN/A
8:30 AM77 °FSunny.6 mph65%29.80 "Hg10 mi
8:00 AM75 °FSunny.6 mph69%29.80 "Hg10 mi
7:30 AM73 °FSunny.No wind74%29.80 "Hg10 mi
7:00 AM72 °FSunny.No wind78%29.80 "Hg10 mi
6:30 AM70 °FPassing clouds.6 mph83%29.80 "HgN/A
6:00 AM70 °FClear.6 mph83%29.80 "Hg10 mi
5:30 AM70 °FPassing clouds.6 mph83%29.80 "HgN/A
5:00 AM70 °FClear.3 mph88%29.80 "Hg10 mi
4:30 AM70 °FClear.3 mph94%29.80 "Hg10 mi
4:00 AM70 °FClear.1 mph94%29.77 "Hg10 mi
3:30 AM68 °FClear.3 mph100%29.77 "Hg10 mi
3:00 AM70 °FClear.No wind94%29.77 "Hg10 mi
2:30 AM68 °FClear.No wind94%29.77 "Hg10 mi
2:00 AM70 °FClear.3 mph94%29.77 "Hg10 mi
1:30 AM70 °FClear.3 mph94%29.80 "Hg10 mi
1:00 AM72 °FClear.No wind88%29.80 "Hg10 mi
12:30 AM72 °FClear.No wind88%29.80 "Hg10 mi
12:00 AM72 °FClear.No wind88%29.80 "Hg10 mi
11:30 PM
Jul 21
73 °FClear.No wind83%29.80 "Hg10 mi
11:00 PM73 °FClear.1 mph83%29.80 "Hg10 mi
10:30 PM75 °FClear.3 mph78%29.80 "Hg10 mi
10:00 PM75 °FClear.3 mph78%29.80 "Hg10 mi
9:30 PM77 °FSunny.3 mph69%29.80 "Hg10 mi
9:00 PM79 °FSunny.6 mph65%29.80 "Hg10 mi
8:30 PM79 °FSunny.6 mph65%29.77 "Hg10 mi
8:00 PM82 °FSunny.8 mph48%29.77 "Hg10 mi
7:30 PM82 °FSunny.13 mph48%29.77 "Hg10 mi
7:00 PM84 °FScattered clouds.13 mph45%29.77 "HgN/A
Weather by CustomWeather, © 2014

See weather overviewHow to use our weather pages